Creek Data

    Home     View Charts     View Raw Data     Messages

ID Distance Battery Voltage Battery Current Internal Temp Internal Humidity External Temp Solar Input rssi snr Time Stamp Record
67984 14.3 3.58 -5 52 52 53 0 -69 8 03/04/2026 11:45 PM 50841
67983 14.3 3.58 -5 52 52 53 0 -70 8 03/04/2026 11:30 PM 50840
67982 14.3 3.58 -5 53 51 54 0 -69 8 03/04/2026 11:15 PM 50839
67981 14.2 3.59 -5 53 52 55 0 -70 9 03/04/2026 11:00 PM 50838
67980 14.3 3.59 -5 53 51 55 0 -70 9 03/04/2026 10:45 PM 50837
67979 14.3 3.58 -5 53 51 55 0 -70 9 03/04/2026 10:30 PM 50836
67978 14.3 3.76 -5 53 51 55 0 -69 8 03/04/2026 10:15 PM 50835
67977 14.3 3.76 -5 52 52 55 0 -69 9 03/04/2026 10:00 PM 50834
67976 14.3 3.76 -6 51 53 54 0.1 -69 9 03/04/2026 09:45 PM 50833
67975 14.3 3.58 -5 49 53 51 0 -70 9 03/04/2026 09:30 PM 50832
67974 14.3 3.58 -5 50 53 51 0 -69 8 03/04/2026 09:15 PM 50831
67973 14.3 3.77 -5 50 53 51 0 -70 9 03/04/2026 09:00 PM 50830
67972 14.3 3.77 -5 50 54 51 0 -69 9 03/04/2026 08:45 PM 50829
67971 14.3 3.59 -5 51 54 52 0 -69 9 03/04/2026 08:30 PM 50828
67970 14.3 3.59 -5 52 54 53 0 -69 8 03/04/2026 08:15 PM 50827
67969 14.3 3.59 -5 52 54 53 0 -69 8 03/04/2026 08:00 PM 50826
67968 14.3 3.77 -5 53 55 54 0 -69 8 03/04/2026 07:45 PM 50825
67967 14.3 3.77 -5 54 55 55 0 -69 8 03/04/2026 07:30 PM 50824
67966 14.3 3.60 -5 55 55 55 0 -69 8 03/04/2026 07:15 PM 50823
67965 14.3 3.61 -5 56 56 56 0 -69 8 03/04/2026 07:00 PM 50822
67964 14.3 3.61 -5 57 57 57 0 -70 8 03/04/2026 06:45 PM 50821
67963 14.3 3.61 -5 58 58 58 0.1 -70 9 03/04/2026 06:30 PM 50820
67962 14.3 3.61 -5 59 59 59 1.8 -70 8 03/04/2026 06:15 PM 50819
67961 14.3 3.79 -5 61 59 60 4.3 -69 9 03/04/2026 06:00 PM 50818
67960 14.3 3.84 5 65 58 62 4.5 -70 8 03/04/2026 05:45 PM 50817